timestamp,wind_dir_avg,wind_spd_avg,wind_spd_max_dir,wind_spd_gust,battery_voltage,lat,long
2024-04-16 00:04:00+00:00,315.0,0.01,219.0,0.0,12.33,47.59359,-54.27349
2024-04-16 00:14:00+00:00,315.0,0.01,219.0,0.0,12.25,47.59359,-54.27349
2024-04-16 00:24:00+00:00,315.0,0.01,219.0,0.0,12.25,47.59359,-54.27349
2024-04-16 00:34:00+00:00,315.0,0.01,219.0,0.0,12.25,47.59359,-54.27349
2024-04-16 00:44:00+00:00,315.0,0.01,219.0,0.0,12.25,47.59359,-54.27349
2024-04-16 00:54:00+00:00,315.0,0.01,219.0,0.0,12.25,47.59359,-54.27349
2024-04-16 01:04:00+00:00,315.0,0.01,231.0,0.0,12.25,47.59359,-54.27349
2024-04-16 01:14:00+00:00,315.0,0.01,231.0,0.0,12.17,47.59359,-54.27349
2024-04-16 01:24:00+00:00,315.0,0.01,231.0,0.0,12.17,47.59359,-54.27349
2024-04-16 01:34:00+00:00,315.0,0.01,231.0,0.0,12.17,47.59359,-54.27349
2024-04-16 01:44:00+00:00,315.0,0.01,231.0,0.0,12.17,47.59359,-54.27349
2024-04-16 01:54:00+00:00,315.0,0.01,231.0,0.0,12.17,47.59359,-54.27349
2024-04-16 02:04:00+00:00,315.0,0.01,208.0,0.0,12.17,47.59359,-54.27349
2024-04-16 02:14:00+00:00,315.0,0.01,208.0,0.0,12.17,47.59359,-54.27349
2024-04-16 02:24:00+00:00,315.0,0.01,208.0,0.0,12.17,47.59359,-54.27349
2024-04-16 02:34:00+00:00,315.0,0.01,208.0,0.0,12.17,47.59359,-54.27349
2024-04-16 02:44:00+00:00,315.0,0.01,208.0,0.0,12.17,47.59359,-54.27349
2024-04-16 02:54:00+00:00,315.0,0.01,208.0,0.0,12.17,47.59359,-54.27349
2024-04-16 03:04:00+00:00,315.0,0.01,208.0,0.0,12.17,47.59359,-54.27349
2024-04-16 03:14:00+00:00,315.0,0.01,208.0,0.0,12.17,47.59359,-54.27349
2024-04-16 03:24:00+00:00,315.0,0.01,208.0,0.0,12.17,47.59359,-54.27349
2024-04-16 03:34:00+00:00,315.0,0.01,208.0,0.0,12.17,47.59359,-54.27349
2024-04-16 03:44:00+00:00,315.0,0.01,208.0,0.0,12.17,47.59359,-54.27349
2024-04-16 03:54:00+00:00,315.0,0.01,208.0,0.0,12.17,47.59359,-54.27349
2024-04-16 04:04:00+00:00,315.0,0.01,208.0,0.0,12.17,47.59359,-54.27349
2024-04-16 04:14:00+00:00,315.0,0.01,208.0,0.0,12.09,47.59359,-54.27349
2024-04-16 04:24:00+00:00,315.0,0.01,208.0,0.0,12.09,47.59359,-54.27349
2024-04-16 04:34:00+00:00,315.0,0.01,208.0,0.0,12.09,47.59359,-54.27349
2024-04-16 04:44:00+00:00,315.0,0.01,208.0,0.0,12.09,47.59359,-54.27349
2024-04-16 04:54:00+00:00,315.0,0.01,208.0,0.0,12.09,47.59359,-54.27349
2024-04-16 05:04:00+00:00,315.0,0.01,208.0,0.0,12.09,47.59359,-54.27349
2024-04-16 05:14:00+00:00,315.0,0.01,208.0,0.0,12.17,47.59359,-54.27349
2024-04-16 05:24:00+00:00,315.0,0.01,208.0,0.0,12.17,47.59359,-54.27349
2024-04-16 05:34:00+00:00,315.0,0.01,208.0,0.0,12.17,47.59359,-54.27349
2024-04-16 05:44:00+00:00,315.0,0.01,208.0,0.0,12.17,47.59359,-54.27349
2024-04-16 05:54:00+00:00,315.0,0.01,208.0,0.0,12.17,47.59359,-54.27349
2024-04-16 06:04:00+00:00,315.0,0.01,208.0,0.0,12.17,47.59359,-54.27349
2024-04-16 06:14:00+00:00,315.0,0.01,208.0,0.0,12.09,47.59359,-54.27349
2024-04-16 06:24:00+00:00,315.0,0.01,208.0,0.0,12.09,47.59359,-54.27349
2024-04-16 06:34:00+00:00,315.0,0.01,208.0,0.0,12.09,47.59359,-54.27349
2024-04-16 06:44:00+00:00,315.0,0.01,208.0,0.0,12.09,47.59359,-54.27349
2024-04-16 06:54:00+00:00,315.0,0.01,208.0,0.0,12.09,47.59359,-54.27349
2024-04-16 07:04:00+00:00,315.0,0.01,208.0,0.0,12.09,47.59359,-54.27349
2024-04-16 07:14:00+00:00,315.0,0.01,208.0,0.0,12.09,47.59359,-54.27349
2024-04-16 07:24:00+00:00,315.0,0.01,208.0,0.0,12.09,47.59359,-54.27349
2024-04-16 07:34:00+00:00,315.0,0.01,208.0,0.0,12.09,47.59359,-54.27349
2024-04-16 07:44:00+00:00,315.0,0.01,208.0,0.0,12.09,47.59359,-54.27349
2024-04-16 07:54:00+00:00,315.0,0.01,208.0,0.0,12.09,47.59359,-54.27349
2024-04-16 08:04:00+00:00,315.0,0.01,208.0,0.0,12.09,47.59359,-54.27349
2024-04-16 08:14:00+00:00,315.0,0.01,208.0,0.0,12.09,47.59359,-54.27349
2024-04-16 08:24:00+00:00,315.0,0.01,208.0,0.0,12.09,47.59359,-54.27349
2024-04-16 08:34:00+00:00,315.0,0.01,208.0,0.0,12.09,47.59359,-54.27349
2024-04-16 08:44:00+00:00,315.0,0.01,208.0,0.0,12.09,47.59359,-54.27349
2024-04-16 08:54:00+00:00,315.0,0.01,208.0,0.0,12.09,47.59359,-54.27349
2024-04-16 09:04:00+00:00,315.0,0.01,208.0,0.0,12.09,47.59359,-54.27349
2024-04-16 09:14:00+00:00,315.0,0.01,208.0,0.0,12.01,47.59359,-54.27349
2024-04-16 09:24:00+00:00,315.0,0.01,208.0,0.0,12.01,47.59359,-54.27349
2024-04-16 09:34:00+00:00,315.0,0.01,208.0,0.0,12.01,47.59359,-54.27349
2024-04-16 09:44:00+00:00,315.0,0.01,208.0,0.0,12.01,47.59359,-54.27349
2024-04-16 09:54:00+00:00,315.0,0.01,208.0,0.0,12.01,47.59359,-54.27349
2024-04-16 10:04:00+00:00,315.0,0.01,208.0,0.0,12.01,47.59359,-54.27349
2024-04-16 10:14:00+00:00,315.0,0.01,208.0,0.0,12.01,47.59359,-54.27349
2024-04-16 10:24:00+00:00,315.0,0.01,208.0,0.0,12.01,47.59359,-54.27349
2024-04-16 10:34:00+00:00,315.0,0.01,208.0,0.0,12.01,47.59359,-54.27349
2024-04-16 10:44:00+00:00,315.0,0.01,208.0,0.0,12.01,47.59359,-54.27349
2024-04-16 10:54:00+00:00,315.0,0.01,208.0,0.0,12.01,47.59359,-54.27349
2024-04-16 11:04:00+00:00,315.0,0.01,208.0,0.0,12.01,47.59359,-54.27349
2024-04-16 11:14:00+00:00,315.0,0.01,208.0,0.0,12.17,47.59359,-54.27349
2024-04-16 11:24:00+00:00,315.0,0.01,208.0,0.0,12.17,47.59359,-54.27349
2024-04-16 11:34:00+00:00,315.0,0.01,208.0,0.0,12.17,47.59359,-54.27349
2024-04-16 11:44:00+00:00,315.0,0.01,208.0,0.0,12.17,47.59359,-54.27349
2024-04-16 11:54:00+00:00,315.0,0.01,208.0,0.0,12.17,47.59359,-54.27349
2024-04-16 12:04:00+00:00,315.0,0.01,208.0,0.0,12.17,47.59359,-54.27349
2024-04-16 12:14:00+00:00,315.0,0.01,208.0,0.0,12.25,47.59359,-54.27349
2024-04-16 12:24:00+00:00,315.0,0.01,208.0,0.0,12.25,47.59359,-54.27349
2024-04-16 12:34:00+00:00,315.0,0.01,208.0,0.0,12.25,47.59359,-54.27349
2024-04-16 12:44:00+00:00,315.0,0.01,208.0,0.0,12.25,47.59359,-54.27349
2024-04-16 12:54:00+00:00,315.0,0.01,208.0,0.0,12.25,47.59359,-54.27349
2024-04-16 13:04:00+00:00,315.0,0.01,208.0,0.0,12.25,47.59359,-54.27349
2024-04-16 13:14:00+00:00,315.0,0.01,208.0,0.0,13.37,47.59359,-54.27349
2024-04-16 13:24:00+00:00,315.0,0.01,208.0,0.0,13.37,47.59359,-54.27349
2024-04-16 13:34:00+00:00,315.0,0.01,208.0,0.0,13.37,47.59359,-54.27349
2024-04-16 13:44:00+00:00,315.0,0.01,208.0,0.0,13.37,47.59359,-54.27349
2024-04-16 13:54:00+00:00,315.0,0.01,208.0,0.0,13.37,47.59359,-54.27349
2024-04-16 14:04:00+00:00,315.0,0.01,208.0,0.0,13.37,47.59359,-54.27349
2024-04-16 14:14:00+00:00,315.0,0.01,208.0,0.0,13.76,47.59359,-54.27349
2024-04-16 14:24:00+00:00,315.0,0.01,208.0,0.0,13.76,47.59359,-54.27349
2024-04-16 14:34:00+00:00,315.0,0.01,208.0,0.0,13.76,47.59359,-54.27349
2024-04-16 14:44:00+00:00,315.0,0.01,208.0,0.0,13.76,47.59359,-54.27349
2024-04-16 14:54:00+00:00,315.0,0.01,208.0,0.0,13.76,47.59359,-54.27349
2024-04-16 15:04:00+00:00,315.0,0.01,208.0,0.0,13.76,47.59359,-54.27349
2024-04-16 15:14:00+00:00,315.0,0.01,208.0,0.0,13.6,47.59359,-54.27349
2024-04-16 15:24:00+00:00,315.0,0.01,208.0,0.0,13.6,47.59359,-54.27349
2024-04-16 15:34:00+00:00,315.0,0.01,208.0,0.0,13.6,47.59359,-54.27349
2024-04-16 15:44:00+00:00,315.0,0.01,208.0,0.0,13.6,47.59359,-54.27349
2024-04-16 15:54:00+00:00,315.0,0.01,208.0,0.0,13.6,47.59359,-54.27349
2024-04-16 16:04:00+00:00,315.0,0.01,208.0,0.0,13.6,47.59359,-54.27349
2024-04-16 16:14:00+00:00,315.0,0.01,208.0,0.0,13.6,47.59359,-54.27349
2024-04-16 16:24:00+00:00,315.0,0.01,208.0,0.0,13.6,47.59359,-54.27349
2024-04-16 16:34:00+00:00,315.0,0.01,208.0,0.0,13.6,47.59359,-54.27349
2024-04-16 16:44:00+00:00,315.0,0.01,208.0,0.0,13.6,47.59359,-54.27349
2024-04-16 16:54:00+00:00,315.0,0.01,208.0,0.0,13.6,47.59359,-54.27349
2024-04-16 17:04:00+00:00,315.0,0.01,208.0,0.0,13.6,47.59359,-54.27349
2024-04-16 17:14:00+00:00,315.0,0.01,208.0,0.0,13.68,47.59359,-54.27349
2024-04-16 17:24:00+00:00,315.0,0.01,208.0,0.0,13.68,47.59359,-54.27349
2024-04-16 17:34:00+00:00,315.0,0.01,208.0,0.0,13.68,47.59359,-54.27349
2024-04-16 17:44:00+00:00,315.0,0.01,208.0,0.0,13.68,47.59359,-54.27349
2024-04-16 17:54:00+00:00,315.0,0.01,208.0,0.0,13.68,47.59359,-54.27349
2024-04-16 18:04:00+00:00,315.0,0.01,208.0,0.0,13.68,47.59359,-54.27349
2024-04-16 18:14:00+00:00,315.0,0.01,208.0,0.0,13.6,47.59359,-54.27349
2024-04-16 18:24:00+00:00,315.0,0.01,208.0,0.0,13.6,47.59359,-54.27349
2024-04-16 18:34:00+00:00,315.0,0.01,208.0,0.0,13.6,47.59359,-54.27349
2024-04-16 18:44:00+00:00,315.0,0.01,208.0,0.0,13.6,47.59359,-54.27349
2024-04-16 18:54:00+00:00,315.0,0.01,208.0,0.0,13.6,47.59359,-54.27349
2024-04-16 19:04:00+00:00,315.0,0.01,208.0,0.0,13.6,47.59359,-54.27349
2024-04-16 19:14:00+00:00,315.0,0.01,208.0,0.0,13.53,47.59359,-54.27349
2024-04-16 19:24:00+00:00,315.0,0.01,208.0,0.0,13.53,47.59359,-54.27349
2024-04-16 19:34:00+00:00,315.0,0.01,208.0,0.0,13.53,47.59359,-54.27349
2024-04-16 19:44:00+00:00,315.0,0.01,208.0,0.0,13.53,47.59359,-54.27349
2024-04-16 19:54:00+00:00,315.0,0.01,208.0,0.0,13.53,47.59359,-54.27349
2024-04-16 20:04:00+00:00,315.0,0.01,208.0,0.0,13.53,47.59359,-54.27349
2024-04-16 20:14:00+00:00,315.0,0.01,208.0,0.0,13.13,47.59359,-54.27349
2024-04-16 20:24:00+00:00,315.0,0.01,208.0,0.0,13.13,47.59359,-54.27349
2024-04-16 20:34:00+00:00,315.0,0.01,208.0,0.0,13.13,47.59359,-54.27349
2024-04-16 20:44:00+00:00,315.0,0.01,208.0,0.0,13.13,47.59359,-54.27349
2024-04-16 20:54:00+00:00,315.0,0.01,208.0,0.0,13.13,47.59359,-54.27349
2024-04-16 21:04:00+00:00,315.0,0.01,208.0,0.0,13.13,47.59359,-54.27349
2024-04-16 21:14:00+00:00,315.0,0.01,208.0,0.0,13.05,47.59359,-54.27349
2024-04-16 21:24:00+00:00,315.0,0.01,208.0,0.0,13.05,47.59359,-54.27349
2024-04-16 21:34:00+00:00,315.0,0.01,208.0,0.0,13.05,47.59359,-54.27349
2024-04-16 21:44:00+00:00,315.0,0.01,208.0,0.0,13.05,47.59359,-54.27349
2024-04-16 21:54:00+00:00,315.0,0.01,208.0,0.0,13.05,47.59359,-54.27349
2024-04-16 22:04:00+00:00,315.0,0.01,208.0,0.0,13.05,47.59359,-54.27349
2024-04-16 22:14:00+00:00,315.0,0.01,208.0,0.0,12.57,47.59359,-54.27349
2024-04-16 22:24:00+00:00,315.0,0.01,208.0,0.0,12.57,47.59359,-54.27349
2024-04-16 22:34:00+00:00,315.0,0.01,208.0,0.0,12.57,47.59359,-54.27349
2024-04-16 22:44:00+00:00,315.0,0.01,208.0,0.0,12.57,47.59359,-54.27349
2024-04-16 22:54:00+00:00,315.0,0.01,208.0,0.0,12.57,47.59359,-54.27349
2024-04-16 23:04:00+00:00,315.0,0.01,208.0,0.0,12.57,47.59359,-54.27349
2024-04-16 23:14:00+00:00,315.0,0.01,208.0,0.0,12.17,47.59359,-54.27349
2024-04-16 23:24:00+00:00,315.0,0.01,208.0,0.0,12.17,47.59359,-54.27349
2024-04-16 23:34:00+00:00,315.0,0.01,208.0,0.0,12.17,47.59359,-54.27349
2024-04-16 23:44:00+00:00,315.0,0.01,208.0,0.0,12.17,47.59359,-54.27349
2024-04-16 23:54:00+00:00,315.0,0.01,208.0,0.0,12.17,47.59359,-54.27349
